Regional Weather Roundup
Issued by NWS Newport/Morehead, NC

Current Version | Previous Version | Graphics & Text | Print | Product List | Glossary Off
Versions: 1 2 3 4 5 6 7 8 9 10 11 12 13 14 15 16 17 18 19 20 21 22 23 24 25 26 27 28 29 30 31 32 33 34 35 36 37 38 39 40 41 42 43 44 45 46 47 48 49 50
000 ASUS42 KMHX 220825 RWRMHX WEATHER ROUNDUP FOR EASTERN NORTH CAROLINA NATIONAL WEATHER SERVICE NEWPORT/MOREHEAD CITY NC 400 AM EDT TUE AUG 22 2017 NOTE: "FAIR" INDICATES FEW OR NO CLOUDS BELOW 12,000 FEET WITH NO SIGNIFICANT WEATHER AND/OR OBSTRUCTIONS TO VISIBILITY NCZ015>017-031-032-045>047-102-103-220900- NORTH COAST CITY SKY/WX TMP DP RH WIND PRES REMARKS EDENTON CLEAR 78 75 90 CALM 30.13F ELIZABETH CITY CLEAR 76 76 100 S6 30.12F KITTY HAWK MOSUNNY 78 74 87 CALM 30.12F MANTEO MOCLDY 79 75 89 SW7 30.13F $$ NCZ045>047-081-094-103-104-220900- CENTRAL COAST CITY SKY/WX TMP DP RH WIND PRES REMARKS FRISCO CLEAR 75 74 96 CALM 30.14F $$ NCZ095-097-098-100-101-220900- SOUTHERN COAST CITY SKY/WX TMP DP RH WIND PRES REMARKS BEAUFORT CLEAR 76 76 100 CALM 30.13F CEDAR ISLAND NOT AVBL JACKSONVILLE CLEAR 75 75 100 CALM 30.13F PINEY ISLAND SUNNY N/A N/A N/A CALM 30.13F WILMINGTON PTCLDY 76 75 97 CALM 30.12F $$ NCZ011>013-027>030-043-044-078>080-089-090>093-098-220900- COASTAL PLAIN CITY SKY/WX TMP DP RH WIND PRES REMARKS AHOSKIE N/A 71 71 100 CALM 30.11F FOG CLINTON CLEAR 73 73 100 CALM 30.13F ELIZABETHTOWN NOT AVBL GOLDSBORO CLEAR 75 73 92 W1 30.13F GREENVILLE CLEAR 75 73 94 SW5 30.13F HAVELOCK CLEAR 75 73 93 CALM 30.14F KENANSVILLE FOG 72 70 94 CALM 30.13F VSB 1/4 KINSTON MOCLDY 72 71 98 CALM 30.13F FOG NEW BERN CLEAR 74 74 100 CALM 30.14F RICHLANDS PTCLDY 73 72 96 CALM 30.14F ROCKY MOUNT CLEAR 71 71 100 CALM 30.12F FOG WASHINGTON CLEAR 75 74 96 CALM 30.13F WHITEVILLE MOCLDY 74 73 97 CALM 30.11F FOG $$ AMZ130-135-150-152-154-156-158-170-250-252-270-ANZ085-086-088-633-658-670-220900- MARINE OBSERVATIONS STATION/POSITION TIME TEMP WIND PRES WAVE SWELL AIR SEA DIR/SP/G HT/PER HT/PER (UTC) (F) (DEG/KT/KT) (MB) (FT/S) (FT/S) CHESAPEAKE LIGHT NOT AVBL 64 E VA BEACH 0750 78 79 190/ 6/ 6 1020.7 2/ 8 2/ 8 DUCK 0800 80 75 200/ 8/ 10 1019.6 2 E DUCK 0730 81 N/A 2/10 OREGON INLET 0800 80 79 180/ 4/ 6 1020.2 13E OREGON INLT 0748 80 N/A 2/ 8 2/ 8 HATTERAS CG 0800 79 83 100/ 1/ 3 1020.3 DIAMOND BUOY 0750 82 86 350/ 4/ 6 1020.3 3/ 9 3/ 9 CAPE LOOKOUT 0800 81 240/ 3/ 3 1019.9 BEAUFORT LAB 0800 80 81 260/ 1/ 2 1019.7 30 SE NEW RVR IN 0708 80 83 230/ 4/ 6 1020.8 30 SE NEW RVR IN 0813 83 N/A 3/ 9 2/11 27 SE WRIGHTSVLE 0708 83 84 200/ 6/ 8 1020.6 5 SE WRIGHTSVLE 0708 82 83 260/ 4/ 6 1020.2 225 S CAPE HAT 0750 82 83 150/ 6/ 8 1020.3 4/11 3/11 41 SE CHARLESTON 0810 83 85 230/ 8/ 10 1019.0 $$

USA.gov is the U.S. government's official web portal to all federal, state and local government web resources and services.